Location: Newark
(26.0814°N, 97.8289°W)
Time: 03:13:28
(UTC+00:00)

N. Korean satellite - Visible Passes

Search period start: 29 January 2020 00:00
Search period end: 08 February 2020 00:00
Orbit: 454 x 507 km, 97.2° (Epoch: 28 January)

Date Brightness Start Highest point End Pass type
(mag) Time Alt. Az. Time Alt. Az. Time Alt. Az.
29 Jan 7.3 11:58:17 10° NNE 12:01:52 55° E 12:05:28 10° S visible
30 Jan 9.2 11:33:25 10° NE 11:36:21 23° E 11:39:17 10° SSE visible
31 Jan 7.4 12:40:53 10° NNW 12:44:06 30° WNW 12:47:22 10° SW visible
01 Feb 10.5 00:44:35 10° WSW 00:44:58 10° W 00:45:21 10° W visible
01 Feb 6.5 12:15:03 10° N 12:18:42 77° W 12:22:23 10° SSW visible
02 Feb 8.0 11:49:44 10° NNE 11:53:13 40° E 11:56:43 10° S visible
03 Feb 9.6 11:25:09 10° NE 11:27:41 17° E 11:30:11 10° SE visible
04 Feb 7.0 12:32:02 10° N 12:35:30 40° WNW 12:38:59 10° SSW visible
05 Feb 6.7 12:06:22 10° NNE 12:10:04 78° E 12:13:46 10° S visible
06 Feb 8.6 11:41:16 10° NE 11:44:33 30° E 11:47:51 10° SSE visible
07 Feb 10.0 11:17:07 10° ENE 11:18:59 13° E 11:20:51 10° SE visible
